Regional Weather Roundup
Issued by NWS Spokane, WA

Home | Current Version | Previous Version | Text Only | Print | Product List | Glossary On
Versions: 1 2 3 4 5 6 7 8 9 10 11 12 13 14 15 16 17 18 19 20 21 22 23 24 25 26 27 28 29 30 31 32 33 34 35 36 37 38 39 40 41 42 43 44 45 46 47 48 49 50
000
NZUS01 KOTX 030010
RWROTX
EASTERN WASHINGTON/NORTHERN IDAHO ROUNDUP
NATIONAL WEATHER SERVICE, SPOKANE WA
500 PM PDT THU JUL 02 2015

Note: "fair" indicated few or no clouds below 12,000 feet with no
significant weather and/or obstructions to visibility.

...NORTHEAST WASHINGTON AND NORTHERN IDAHO PANHANDLE...

CITY           SKY/WX    TMP DP  RH WIND       PRES   REMARKS
SPOKANE INTL   MOSUNNY   96  40  14 W7G20     29.94F HX  92
SPOKANE DOWNTO SUNNY     98  44  15 VRB3      29.92F HX  94
COEUR D ALENE  SUNNY     95  45  17 CALM      29.93F HX  91
DEER PARK      SUNNY     96  44  16 CALM      29.94F HX  92
SANDPOINT      MOSUNNY   93  45  18 W6        29.94S
BONNERS FERRY  FAIR      91  48  22 SW5       29.94F

...SOUTHEAST WASHINGTON AND SOUTHERN IDAHO PANHANDLE...

CITY           SKY/WX    TMP DP  RH WIND       PRES   REMARKS
WALLA WALLA    SUNNY    103  41  12 W10       29.85F HX  98
PULLMAN/MOSCOW SUNNY     95  43  16 N7        29.97F HX  91
LEWISTON       SUNNY    101  34   9 VRB3      29.86F HX  95
LOWELL           N/A    104  43  12 CALM      29.86F HX  99

...COLUMBIA BASIN...

CITY           SKY/WX    TMP DP  RH WIND       PRES   REMARKS
EPHRATA        SUNNY    102  46  15 SW13G25   29.86F HX  98
MOSES LAKE     SUNNY    103  42  12 SW8G20    29.87F HX  98
TRI CITIES     SUNNY    104  49  15 NW5       29.81F HX 101
HERMISTON      SUNNY    104  44  13 VRB5      29.82F HX  99
PENDLETON      SUNNY    102  36  10 VRB7      29.87F HX  96

...EAST SLOPES CASCADES...

CITY           SKY/WX    TMP DP  RH WIND       PRES   REMARKS
THE DALLES     SUNNY    104  41  11 W13       29.80F HX  99
YAKIMA         SUNNY    103  50  17 E9        29.85F HX 100
ELLENSBURG     SUNNY    103  48  15 W9        29.90F HX  99
WENATCHEE      SUNNY    102  39  11 E3        29.85F HX  97
OMAK           SUNNY    100  44  14 NW7       29.87F HX  96

...SOUTHERN BRITISH COLUMBIA...

CITY           SKY/WX    TMP DP  RH WIND       PRES   REMARKS
PENTICTON      MOSUNNY   93  54  26 N12       29.89F HX  91
CASTLEGAR      MOSUNNY   97  52  21 S7        29.89F HX  94
CRANBROOK      PTSUNNY   90  48  24 E8        29.98F

...WESTERN MONTANA...

CITY           SKY/WX    TMP DP  RH WIND       PRES   REMARKS
MISSOULA       SUNNY     93  42  17 NW9       29.97F

...NEIGHBORING CITIES...

CITY           SKY/WX    TMP DP  RH WIND       PRES   REMARKS
SEATTLE        MOSUNNY   92  52  25 N13       29.96F
CALGARY        MOSUNNY   81  55  41 S14       30.06F



USA.gov is the U.S. government's official web portal to all federal, state and local government web resources and services.